Latest Weather Observations for Mount Boyce

IDN60901

Issued at 7:15 am EST Wednesday 23 July 2014 (issued every 10 minutes, with the page automatically refreshed every 10 minutes)

About weather observations | Map of Sydney area stations | Latest observations for Sydney area | Other Formats
Station Details ID: 063292 Name: MOUNT BOYCE AWS Lat: -33.62 Lon: 150.27 Height: 1080.0 m
Data from the previous 72 hours. | See also: Recent months at Mount Boyce
Date/Time
EST
Tmp

°C
App
Tmp
°C
Dew
Point
°C
Rel
Hum
%
Delta-T

°C
Wind Press
QNH
hPa
Press
MSL
hPa
Rain
since
9 am
mm
Dir
 
Spd
km/h
Gust
km/h
Spd
kts
Gust
kts
23/07:00am 3.0 1.4 2.7 98 0.1 W 0 0 0 0 - - 0.0
23/06:57am 3.0 1.1 2.7 98 0.1 W 2 6 1 3 - - 0.0
23/06:30am 3.1 0.2 2.7 97 0.2 W 7 9 4 5 - - 0.0
23/06:00am 3.1 0.2 2.7 97 0.2 W 7 9 4 5 - - 0.0
23/05:30am 3.4 0.5 2.8 96 0.3 W 7 7 4 4 - - 0.0
23/05:17am 3.4 1.9 2.8 96 0.3 CALM 0 6 0 3 - - 0.0
23/05:00am 3.6 2.1 2.9 95 0.3 CALM 0 0 0 0 - - 0.0
23/04:45am 3.7 2.2 3.1 96 0.3 CALM 0 0 0 0 - - 0.0
23/04:30am 3.9 2.5 3.3 96 0.3 CALM 0 0 0 0 - - 0.0
23/04:07am 4.0 1.4 3.4 96 0.3 N 6 7 3 4 - - 0.0
23/04:00am 4.1 1.6 3.5 96 0.3 N 6 9 3 5 - - 0.0
23/03:30am 3.9 2.4 3.0 94 0.4 CALM 0 0 0 0 - - 0.0
23/03:00am 4.2 2.7 3.0 92 0.5 CALM 0 0 0 0 - - 0.0
23/02:40am 4.3 2.8 3.0 91 0.6 CALM 0 0 0 0 - - 0.0
23/02:30am 4.5 3.0 3.2 91 0.6 CALM 0 0 0 0 - - 0.0
23/02:00am 4.8 3.1 3.9 94 0.4 NNE 2 6 1 3 - - 0.0
23/01:30am 4.9 3.6 4.0 94 0.4 CALM 0 0 0 0 - - 0.0
23/01:00am 5.0 3.7 4.3 95 0.3 CALM 0 0 0 0 - - 0.0
23/12:30am 5.3 4.1 4.7 96 0.3 CALM 0 6 0 3 - - 0.0
23/12:09am 5.3 3.7 4.7 96 0.3 NE 2 7 1 4 - - 0.0
23/12:00am 5.3 3.7 4.7 96 0.3 NNE 2 7 1 4 - - 0.0
 
Date/Time
EST
Tmp

°C
App
Tmp
°C
Dew
Point
°C
Rel
Hum
%
Delta-T

°C
Wind Press
QNH
hPa
Press
MSL
hPa
Rain
since
9 am
mm
Dir
 
Spd
km/h
Gust
km/h
Spd
kts
Gust
kts
22/11:30pm 5.3 3.7 4.7 96 0.3 ENE 2 9 1 5 - - 0.0
22/11:00pm 5.3 3.0 4.6 95 0.3 ENE 6 9 3 5 - - 0.0
22/10:30pm 5.7 4.2 5.1 96 0.3 NE 2 7 1 4 - - 0.0
22/10:00pm 5.8 3.0 5.2 96 0.3 ENE 9 15 5 8 - - 0.0
22/09:30pm 5.9 3.1 5.3 96 0.3 ENE 9 15 5 8 - - 0.0
22/09:03pm 5.8 3.1 5.4 97 0.2 ENE 9 13 5 7 - - 0.0
22/09:02pm 5.8 3.1 5.4 97 0.2 ENE 9 13 5 7 - - 0.0
22/09:00pm 5.8 3.4 5.2 96 0.3 ENE 7 13 4 7 - - 0.0
22/08:34pm 5.5 2.6 4.9 96 0.3 ENE 9 13 5 7 - - 0.0
22/08:30pm 5.4 2.5 4.8 96 0.3 ENE 9 13 5 7 - - 0.0
22/08:17pm 5.0 2.0 4.1 94 0.4 ENE 9 13 5 7 - - 0.0
22/08:00pm 4.9 1.9 3.9 93 0.4 ENE 9 17 5 9 - - 0.0
22/07:30pm 5.0 2.3 3.7 91 0.6 ENE 7 13 4 7 - - 0.0
22/07:00pm 5.5 2.9 4.0 90 0.7 ENE 7 9 4 5 - - 0.0
22/06:30pm 5.4 2.7 3.9 90 0.7 ENE 7 11 4 6 - - 0.0
22/06:00pm 5.7 2.6 3.7 87 0.9 ENE 9 13 5 7 - - 0.0
22/05:30pm 6.1 3.3 3.4 83 1.2 ENE 7 11 4 6 - - 0.0
22/05:00pm 7.5 4.8 3.7 77 1.7 E 7 11 4 6 - - 0.0
22/04:30pm 8.7 6.0 3.7 71 2.3 E 7 13 4 7 - - 0.0
22/04:00pm 9.5 6.9 3.0 64 3.0 ENE 6 9 3 5 - - 0.0
22/03:30pm 11.5 8.9 3.3 57 3.8 ENE 6 13 3 7 - - 0.0
22/03:00pm 11.5 8.8 2.5 54 4.1 ENE 6 13 3 7 - - 0.0
22/02:30pm 11.9 8.9 1.0 47 4.9 SSW 6 11 3 6 - - 0.0
22/02:00pm 10.7 7.6 0.4 49 4.5 SSW 6 9 3 5 - - 0.0
22/01:30pm 11.0 7.6 2.1 54 4.0 SW 9 15 5 8 - - 0.0
22/01:00pm 10.2 7.2 2.3 58 3.6 W 7 11 4 6 - - 0.0
22/12:30pm 9.4 6.5 2.5 62 3.1 W 7 13 4 7 - - 0.0
22/12:00pm 8.8 5.5 2.6 65 2.8 W 9 11 5 6 - - 0.0
22/11:30am 9.1 5.9 3.1 66 2.7 W 9 11 5 6 - - 0.0
22/11:00am 9.6 7.4 5.2 74 2.1 E 6 9 3 5 - - 0.0
22/10:30am 6.8 5.6 4.8 87 0.9 CALM 0 0 0 0 - - 0.0
22/10:00am 6.8 5.3 4.8 87 0.9 NNE 2 11 1 6 - - 0.0
22/09:52am 7.6 6.4 6.4 92 0.6 WNW 2 11 1 6 - - 0.0
22/09:44am 5.9 4.8 5.3 96 0.3 CALM 0 0 0 0 - - 0.0
22/09:30am 4.6 3.3 4.2 97 0.2 CALM 0 0 0 0 - - 0.0
22/09:20am 4.2 2.8 3.8 97 0.2 CALM 0 0 0 0 - - 0.0
22/09:00am 5.5 4.0 5.2 98 0.1 E 2 6 1 3 - - 0.0
22/08:34am 4.1 2.7 3.8 98 0.1 CALM 0 7 0 4 - - 0.0
22/08:30am 4.5 2.8 4.2 98 0.1 ENE 2 7 1 4 - - 0.0
22/08:26am 4.4 2.3 4.1 98 0.1 NE 4 9 2 5 - - 0.0
22/08:00am 2.5 0.5 2.2 98 0.1 NE 2 7 1 4 - - 0.0
22/07:58am 2.8 0.8 2.5 98 0.1 NE 2 7 1 4 - - 0.0
22/07:42am 3.0 0.7 2.7 98 0.1 E 4 7 2 4 - - 0.0
22/07:38am 2.9 1.3 2.6 98 0.1 CALM 0 7 0 4 - - 0.0
22/07:30am 2.5 0.9 2.2 98 0.1 CALM 0 0 0 0 - - 0.0
22/07:00am 2.4 0.7 2.1 98 0.1 CALM 0 0 0 0 - - 0.0
22/06:30am 2.5 -0.3 2.2 98 0.1 WSW 6 7 3 4 - - 0.0
22/06:00am 2.8 0.1 2.5 98 0.1 WSW 6 7 3 4 - - 0.0
22/05:30am 2.8 1.2 2.5 98 0.1 CALM 0 0 0 0 - - 0.0
22/05:00am 3.1 1.2 2.8 98 0.1 W 2 6 1 3 - - 0.0
22/04:30am 3.3 0.7 3.0 98 0.1 W 6 9 3 5 - - 0.0
22/04:00am 3.4 1.9 3.1 98 0.1 CALM 0 7 0 4 - - 0.0
22/03:30am 3.5 2.0 3.1 97 0.2 CALM 0 0 0 0 - - 0.0
22/03:00am 3.4 1.9 3.0 97 0.2 CALM 0 0 0 0 - - 0.0
22/02:30am 3.8 2.4 3.4 97 0.2 CALM 0 0 0 0 - - 0.0
22/02:00am 4.0 2.6 3.6 97 0.2 CALM 0 0 0 0 - - 0.0
22/01:30am 4.2 1.7 3.8 97 0.2 E 6 9 3 5 - - 0.0
22/01:04am 4.3 2.6 3.9 97 0.2 E 2 9 1 5 - - 0.0
22/01:00am 4.3 2.2 3.9 97 0.2 ENE 4 9 2 5 - - 0.0
22/12:30am 4.2 2.8 3.6 96 0.3 CALM 0 0 0 0 - - 0.0
22/12:07am 3.9 2.1 3.2 95 0.3 ENE 2 7 1 4 - - 0.0
22/12:06am 3.9 2.1 3.2 95 0.3 ENE 2 7 1 4 - - 0.0
22/12:00am 3.9 1.1 3.2 95 0.3 ENE 7 11 4 6 - - 0.0
 
Date/Time
EST
Tmp

°C
App
Tmp
°C
Dew
Point
°C
Rel
Hum
%
Delta-T

°C
Wind Press
QNH
hPa
Press
MSL
hPa
Rain
since
9 am
mm
Dir
 
Spd
km/h
Gust
km/h
Spd
kts
Gust
kts
21/11:34pm 4.2 1.5 3.6 96 0.3 ENE 7 11 4 6 - - 0.0
21/11:30pm 4.3 1.6 3.7 96 0.3 ENE 7 11 4 6 - - 0.0
21/11:27pm 4.4 1.8 4.0 97 0.2 ENE 7 11 4 6 - - 0.0
21/11:00pm 5.1 2.8 4.7 97 0.2 E 6 11 3 6 - - 0.0
21/10:30pm 5.0 2.5 4.6 97 0.2 ENE 7 13 4 7 - - 0.0
21/10:00pm 4.9 2.0 4.5 97 0.2 ENE 9 13 5 7 - - 0.0
21/09:30pm 4.4 1.7 3.8 96 0.3 ENE 7 11 4 6 - - 0.0
21/09:18pm 4.1 1.4 3.5 96 0.3 ENE 7 13 4 7 - - 0.0
21/09:00pm 4.1 1.0 3.4 95 0.3 ENE 9 13 5 7 - - 0.0
21/08:57pm 3.9 0.7 3.2 95 0.3 ENE 9 13 5 7 - - 0.0
21/08:30pm 3.9 0.7 2.9 93 0.4 ENE 9 11 5 6 - - 0.0
21/08:00pm 4.1 1.2 2.8 91 0.6 ENE 7 9 4 5 - - 0.0
21/07:30pm 4.7 1.9 3.4 91 0.6 ENE 7 9 4 5 - - 0.0
21/07:00pm 5.2 2.5 3.9 91 0.6 ENE 7 11 4 6 - - 0.0
21/06:30pm 4.9 2.1 3.4 90 0.7 ENE 7 9 4 5 - - 0.0
21/06:00pm 5.2 2.0 3.2 87 0.9 ENE 9 15 5 8 - - 0.0
21/05:30pm 6.0 3.3 3.7 85 1.0 ENE 7 15 4 8 - - 0.0
21/05:00pm 7.0 3.9 3.8 80 1.5 E 9 13 5 7 - - 0.0
21/04:30pm 8.0 5.4 4.0 76 1.9 E 7 13 4 7 - - 0.0
21/04:00pm 8.4 5.6 3.3 70 2.3 E 7 13 4 7 - - 0.0
21/03:30pm 10.3 8.0 4.7 68 2.7 E 6 11 3 6 - - 0.0
21/03:00pm 9.2 6.6 3.2 66 2.8 ENE 6 9 3 5 - - 0.0
21/02:30pm 10.0 7.5 4.6 69 2.6 E 7 13 4 7 - - 0.0
21/02:00pm 9.0 6.2 3.4 68 2.6 E 7 13 4 7 - - 0.0
21/01:30pm 9.8 7.0 2.9 62 3.2 E 7 15 4 8 - - 0.0
21/01:00pm 11.3 8.3 4.3 62 3.4 E 9 17 5 9 - - 0.0
21/12:30pm 10.1 7.5 4.3 67 2.8 ENE 7 13 4 7 - - 0.0
21/12:00pm 9.9 7.2 3.9 66 2.8 E 7 17 4 9 - - 0.0
21/11:30am 8.5 5.7 3.4 70 2.3 E 7 13 4 7 - - 0.0
21/11:00am 8.6 5.5 3.4 70 2.4 ENE 9 15 5 8 - - 0.0
21/10:30am 9.0 6.1 4.4 73 2.2 ENE 9 20 5 11 - - 0.0
21/10:00am 7.4 5.2 5.5 88 0.9 ENE 6 9 3 5 - - 0.0
21/09:30am 5.7 4.2 4.8 94 0.4 ENE 2 7 1 4 - - 0.0
21/09:24am 5.6 4.1 4.9 95 0.3 ENE 2 7 1 4 - - 0.0
21/09:12am 5.3 3.4 4.7 96 0.3 ENE 4 11 2 6 - - 0.0
21/09:00am 4.9 2.9 4.3 96 0.3 ENE 4 7 2 4 - - 0.0
21/08:30am 4.2 2.8 3.8 97 0.2 CALM 0 0 0 0 - - 0.0
21/08:00am 3.5 1.6 2.9 96 0.3 ENE 2 7 1 4 - - 0.0
21/07:30am 3.0 1.4 2.4 96 0.3 CALM 0 0 0 0 - - 0.0
21/07:00am 2.7 1.0 2.1 96 0.3 CALM 0 0 0 0 - - 0.0
21/06:30am 2.9 1.3 2.5 97 0.2 CALM 0 0 0 0 - - 0.0
21/06:00am 2.7 1.1 2.3 97 0.2 CALM 0 0 0 0 - - 0.0
21/05:30am 2.8 1.2 2.5 98 0.1 CALM 0 0 0 0 - - 0.0
21/05:00am 3.0 1.4 2.7 98 0.1 CALM 0 0 0 0 - - 0.0
21/04:30am 2.9 1.3 2.6 98 0.1 CALM 0 0 0 0 - - 0.0
21/04:06am 3.1 1.6 2.8 98 0.1 CALM 0 0 0 0 - - 0.0
21/04:00am 3.0 1.4 2.7 98 0.1 CALM 0 0 0 0 - - 0.0
21/03:50am 2.9 1.3 2.6 98 0.1 CALM 0 0 0 0 - - 0.0
21/03:30am 2.5 0.9 2.2 98 0.1 CALM 0 0 0 0 - - 0.0
21/03:01am 2.4 0.7 2.0 97 0.2 CALM 0 0 0 0 - - 0.0
21/03:00am 2.4 0.7 2.0 97 0.2 CALM 0 0 0 0 - - 0.0
21/02:40am 2.4 0.7 2.0 97 0.2 CALM 0 0 0 0 - - 0.0
21/02:30am 2.7 1.1 2.3 97 0.2 CALM 0 0 0 0 - - 0.0
21/02:00am 2.6 1.0 2.2 97 0.2 CALM 0 0 0 0 - - 0.0
21/01:30am 2.9 1.3 2.5 97 0.2 CALM 0 0 0 0 - - 0.0
21/01:00am 2.8 1.2 2.4 97 0.2 CALM 0 0 0 0 - - 0.0
21/12:30am 2.3 0.2 1.9 97 0.2 ENE 2 6 1 3 - - 0.0
21/12:27am 2.2 0.1 1.8 97 0.2 ENE 2 6 1 3 - - 0.0
21/12:00am 2.3 -0.1 1.9 97 0.2 E 4 7 2 4 - - 0.0
 
Date/Time
EST
Tmp

°C
App
Tmp
°C
Dew
Point
°C
Rel
Hum
%
Delta-T

°C
Wind Press
QNH
hPa
Press
MSL
hPa
Rain
since
9 am
mm
Dir
 
Spd
km/h
Gust
km/h
Spd
kts
Gust
kts
20/11:30pm 2.7 -0.1 2.1 96 0.3 ENE 6 9 3 5 - - 0.0
20/11:00pm 2.6 -0.4 2.0 96 0.3 ENE 7 9 4 5 - - 0.0
20/10:30pm 3.1 0.4 2.5 96 0.3 ENE 6 9 3 5 - - 0.0
20/10:00pm 3.4 0.6 3.0 97 0.2 ENE 7 9 4 5 - - 0.0
20/09:40pm 3.4 0.6 3.0 97 0.2 ENE 7 11 4 6 - - 0.0
20/09:35pm 3.4 0.6 3.0 97 0.2 ENE 7 11 4 6 - - 0.0
20/09:30pm 3.4 0.6 3.0 97 0.2 ENE 7 11 4 6 - - 0.0
20/09:00pm 3.4 0.5 2.8 96 0.3 ENE 7 11 4 6 - - 0.0
20/08:49pm 3.5 0.7 2.9 96 0.3 ENE 7 13 4 7 - - 0.0
20/08:39pm 3.5 0.7 2.9 96 0.3 ENE 7 13 4 7 - - 0.0
20/08:30pm 3.4 0.5 2.8 96 0.3 ENE 7 13 4 7 - - 0.0
20/08:00pm 3.5 0.6 2.6 94 0.4 ENE 7 13 4 7 - - 0.0
20/07:30pm 3.4 0.4 2.1 91 0.6 E 7 11 4 6 - - 0.0
20/07:00pm 4.2 1.3 2.6 89 0.7 E 7 9 4 5 - - 0.0
20/06:30pm 4.5 1.9 3.0 90 0.7 E 6 9 3 5 - - 0.0
20/06:00pm 4.4 1.5 2.8 89 0.7 E 7 9 4 5 - - 0.0
20/05:30pm 4.6 1.7 2.5 86 0.9 E 7 9 4 5 - - 0.0
20/05:00pm 5.5 2.7 2.3 80 1.4 E 6 7 3 4 - - 0.0
20/04:30pm 6.6 4.3 2.7 76 1.7 E 4 7 2 4 - - 0.0
20/04:00pm 7.5 5.3 3.4 75 1.9 ENE 4 7 2 4 - - 0.0
20/03:30pm 7.7 6.3 3.4 74 2.0 CALM 0 6 0 3 - - 0.0
20/03:00pm 8.0 6.6 3.3 72 2.1 CALM 0 0 0 0 - - 0.0
20/02:30pm 8.6 6.8 3.4 70 2.4 E 2 7 1 4 - - 0.0
20/02:00pm 7.1 4.3 3.2 76 1.8 SSE 7 13 4 7 - - 0.0
20/01:50pm 6.8 3.2 3.1 77 1.7 SE 11 15 6 8 - - 0.0
20/01:30pm 6.7 3.1 3.0 77 1.7 SSE 11 17 6 9 - - 0.0
20/01:00pm 7.3 4.6 3.7 78 1.6 SE 7 13 4 7 - - 0.0
20/12:30pm 7.1 4.0 3.5 78 1.6 SSE 9 15 5 8 - - 0.0
20/12:00pm 6.8 3.7 3.8 81 1.4 SSE 9 19 5 10 - - 0.0
20/11:30am 6.4 2.8 3.2 80 1.4 SE 11 22 6 12 - - 0.0
20/11:12am 7.0 4.4 4.0 81 1.4 SE 7 17 4 9 - - 0.0
20/11:00am 6.3 3.1 3.3 81 1.3 SSE 9 22 5 12 - - 0.0
20/10:59am 6.3 3.2 3.5 82 1.3 SSE 9 22 5 12 - - 0.0
20/10:30am 6.3 2.7 3.1 80 1.4 SSE 11 22 6 12 - - 0.0
20/10:09am 5.8 2.6 3.1 83 1.2 S 9 19 5 10 - - 0.0
20/10:00am 5.3 1.3 2.8 84 1.1 SSE 13 26 7 14 - - 0.0
20/09:53am 5.0 0.9 2.5 84 1.1 SSE 13 22 7 12 - - 0.0
20/09:51am 5.0 0.9 2.5 84 1.1 SSE 13 24 7 13 - - 0.0
20/09:30am 5.0 0.9 2.5 84 1.1 SE 13 24 7 13 - - 0.0
20/09:27am 4.9 0.8 2.4 84 1.1 SE 13 24 7 13 - - 0.0
20/09:00am 4.5 0.4 2.2 85 1.0 SE 13 24 7 13 - - 0.0
20/08:30am 3.9 -0.3 1.6 85 1.0 SSE 13 20 7 11 - - 0.0
20/08:00am 3.4 -0.8 1.4 87 0.8 SSE 13 28 7 15 - - 0.0
20/07:30am 3.1 -1.5 1.3 88 0.7 SSE 15 26 8 14 - - 0.0

Latest Capital City Observations: Canberra | Sydney | Melbourne | Brisbane | Adelaide | Perth | Hobart | Darwin

Other Formats:

Comma delimited format used in spreadsheet applications
http://www.bom.gov.au/fwo/IDN60901/IDN60901.94743.axf

JavaScript Object Notation format (JSON) in row-major order
http://www.bom.gov.au/fwo/IDN60901/IDN60901.94743.json